Regional Weather Roundup
Issued by NWS Portland, ME

Current Version | Previous Version | Text Only | Print | Product List | Glossary Off
Versions: 1 2 3 4 5 6 7 8 9 10 11 12 13 14 15 16 17 18 19 20 21 22 23 24 25 26 27 28 29 30 31 32 33 34 35 36 37 38 39 40 41 42 43 44 45 46 47 48 49 50
000 ASUS41 KGYX 211910 RWRGYX WEATHER ROUNDUP FOR MAINE AND NEW HAMPSHIRE NATIONAL WEATHER SERVICE GRAY ME 300 PM EDT FRI JUL 21 2017 MEZ002-005-006-010-012-015-018-020-021-024-026-027-029-212000- MAINE CITY SKY/WX TMP DP RH WIND PRES REMARKS PORTLAND MOSUNNY 85 59 41 S15G25 29.76F SANFORD N/A 88 57 34 SW12 29.78F BAR HARBOR MOSUNNY 80 65 59 S14 29.73S WISCASSET MOSUNNY 87 61 41 SW13G21 29.76F ROCKLAND MOSUNNY 82 66 58 S12 29.75F FRYEBURG SUNNY 86 62 44 SW9 29.77F LEWISTONAUBURN SUNNY 85 61 44 W7 29.76F AUGUSTA SUNNY 86 60 41 VRB7 29.75F WATERVILLE SUNNY 85 63 47 SW8 29.72F BANGOR PTSUNNY 86 60 41 W6G17 29.72F GREENVILLE N/A 83 56 39 CALM 29.74F MILLINOCKET CLOUDY 85 57 38 NW9 29.70F HOULTON CLOUDY 79 62 56 SW5 29.68F PRESQUE ISLE CLOUDY 78 59 51 W15G21 29.70F FRENCHVILLE SUNNY 74 59 59 W9 29.69F CARIBOU MOSUNNY 77 61 57 W6 29.69F $$ NHZ002-005-008-009-011-012-014-212000- NEW HAMPSHIRE CITY SKY/WX TMP DP RH WIND PRES REMARKS PORTSMOUTH MOSUNNY 88 59 37 SW7 29.76F ROCHESTER SUNNY 88 58 36 MISG 29.78F NASHUA SUNNY 89 59 36 NW10 29.80F MANCHESTER MOSUNNY 90 55 30 W9 29.78F CONCORD SUNNY 89 57 33 W12 29.79F LACONIA SUNNY 85 57 38 W6 29.79F PLYMOUTH FAIR 85 56 38 W3 29.79F BERLIN MOSUNNY 83 54 36 VRB7 29.81F WHITEFIELD MOSUNNY 82 56 40 W9 29.82F JAFFREY SUNNY 87 60 40 VRB6 29.84F KEENE MOSUNNY 86 61 42 NW5G17 29.81F LEBANON SUNNY 86 61 42 W12G18 29.81S MT WASHINGTON MOSUNNY 57 46 67 W36G41 N/A $$ VTZ005-007-008-212000- VERMONT CITY SKY/WX TMP DP RH WIND PRES REMARKS ST JOHNSBURY N/A 82 59 45 MISG 29.78F MONTPELIER SUNNY 81 60 48 NW10 29.86F BURLINGTON PTSUNNY 86 62 44 SW8 29.79F $$ MAZ007-012-024-CTZ003-RIZ002-NYZ038-NYZ072-212000- SOUTHERN NEW ENGLAND AND NY CITY SKY/WX TMP DP RH WIND PRES REMARKS BOSTON MOSUNNY 90 59 35 MISG 29.78F WORCESTER SUNNY 85 60 42 NW12 29.85F NANTUCKET SUNNY 79 69 71 SW14 29.83F PROVIDENCE PTSUNNY 90 65 43 SW12 29.81F HX 92 HARTFORD PTSUNNY 88 65 46 W12 29.83F HX 90 ALBANY CLOUDY 85 63 47 NW15G22 29.85S NEW YORK CITY CLOUDY 92 64 39 W13 29.85F HX 93 $$ ANZ081-ANZ082-ANZ150-NHZ014-MEZ023>029-212000- COASTAL MARINE OBSERVATIONS STATION/POSITION TIME TEMP WIND PRES WAVE AIR SEA DIR/SP/G HT/PER (UTC) (F) (DEG/KT/KT) (MB) (FT/S) MOUNT DESERT ROC 1900 63 1007.6F MATINICUS ROCK 1800 68 240/ 15/ 15 1008.0F ISLE OF SHOALS 1800 75 150/ 10/ 10 1008.9F JEFFREYS LEDGE 1806 69 N/A 2/14 CASHES LEDGE BUO 1750 74 71 1009.3 2/11 GEORGES BANK BUO 1750 64 61 1009.3 3/ 7 $$ .............KEY.............. WCI - WIND CHILL TC - TEMPERATURE IN CELSIUS VSB - VISIBILITY IN MILES HX - HEAT INDEX FAIR- INDICATES FEW OR NO CLOUDS BELOW 12,000 FT, WITH NO SIGNIFICANT WEATHER AND/OR OBSTRUCTIONS TO VISIBILITY.

USA.gov is the U.S. government's official web portal to all federal, state and local government web resources and services.